When you browse on this site, cookies collect data to enhance your experience and personalize the content and advertising you see.
Visit our Privacy Policy to learn more. By continuing to use the site, you agree to this use of cookies and data.
  • In Schweiz
  • Länderverzeichnis
  • Für 7 Tage
  • Wassertemperatur
  • Satellitenkarten
  • Wetterkarte
  • Widgets
  • user-avatar
    Anmelden

    Stündliche Wetter Tomas Barron

    Heute, 22 Juli, Montag

    Zeit Temperatur Niederschläge Wind Luftdruck Luftfeuchtigkeit
    00:00 +6°C° 0 mm 1 m/S 476 mmHg 59%
    01:00 +5°C° 0 mm 1 m/S 475 mmHg 60%
    02:00 +4°C° 0 mm 1 m/S 475 mmHg 62%
    03:00 +4°C° 0 mm 1 m/S 474 mmHg 63%
    04:00 +3°C° 0 mm 1 m/S 473 mmHg 64%
    05:00 +1°C° 0 mm 0 m/S 473 mmHg 66%
    06:00 +2°C° 0 mm 0 m/S 474 mmHg 62%
    07:00 +3°C° 0 mm 0 m/S 475 mmHg 58%
    08:00 +4°C° 0 mm 0 m/S 476 mmHg 55%
    09:00 +7°C° 0 mm 1 m/S 477 mmHg 48%
    10:00 +8°C° 0 mm 2 m/S 478 mmHg 42%
    11:00 +10°C° 0 mm 3 m/S 479 mmHg 36%
    12:00 +10°C° 0 mm 5 m/S 480 mmHg 32%
    13:00 +13°C° 0 mm 6 m/S 480 mmHg 28%
    14:00 +13°C° 0 mm 8 m/S 481 mmHg 24%
    15:00 +13°C° 0 mm 8 m/S 480 mmHg 26%
    16:00 +12°C° 0 mm 7 m/S 479 mmHg 27%
    17:00 +12°C° 0 mm 7 m/S 479 mmHg 29%
    18:00 +10°C° 0 mm 6 m/S 478 mmHg 38%
    19:00 +8°C° 0 mm 6 m/S 477 mmHg 48%
    20:00 +7°C° 0 mm 6 m/S 477 mmHg 57%
    21:00 +6°C° 0 mm 5 m/S 476 mmHg 62%
    22:00 +5°C° 0 mm 3 m/S 476 mmHg 66%
    23:00 +5°C° 0 mm 2 m/S 476 mmHg 71%

    Morgen, 23 Juli, Dienstag

    Zeit Temperatur Niederschläge Wind Luftdruck Luftfeuchtigkeit
    00:00 +4°C° 0 mm 2 m/S 475 mmHg 75%
    01:00 +4°C° 0 mm 2 m/S 475 mmHg 78%
    02:00 +4°C° 0 mm 2 m/S 475 mmHg 82%
    03:00 +3°C° 0 mm 2 m/S 474 mmHg 83%
    04:00 +3°C° 0 mm 2 m/S 474 mmHg 85%
    05:00 +2°C° 0 mm 2 m/S 474 mmHg 86%
    06:00 +3°C° 0 mm 2 m/S 474 mmHg 82%
    07:00 +3°C° 0 mm 2 m/S 475 mmHg 78%
    08:00 +3°C° 0 mm 3 m/S 476 mmHg 74%
    09:00 +5°C° 0 mm 4 m/S 477 mmHg 64%
    10:00 +7°C° 0 mm 6 m/S 478 mmHg 54%
    11:00 +9°C° 0 mm 7 m/S 479 mmHg 44%
    12:00 +9°C° 0 mm 8 m/S 479 mmHg 43%
    13:00 +10°C° 0 mm 8 m/S 479 mmHg 41%
    14:00 +10°C° 0 mm 9 m/S 478 mmHg 40%
    15:00 +10°C° 0 mm 9 m/S 478 mmHg 44%
    16:00 +8°C° 0 mm 9 m/S 477 mmHg 48%
    17:00 +7°C° 0 mm 10 m/S 476 mmHg 53%
    18:00 +6°C° 0 mm 10 m/S 475 mmHg 58%
    19:00 +5°C° 0 mm 10 m/S 475 mmHg 64%
    20:00 +2°C° 0 mm 10 m/S 475 mmHg 70%
    21:00 +2°C° 0 mm 8 m/S 475 mmHg 72%
    22:00 +3°C° 0 mm 7 m/S 475 mmHg 74%
    23:00 +2°C° 0 mm 6 m/S 475 mmHg 75%

    übermorgen, 24 Juli, Mittwoch

    Zeit Temperatur Niederschläge Wind Luftdruck Luftfeuchtigkeit
    00:00 +2°C° 0 mm 6 m/S 474 mmHg 76%
    01:00 +2°C° 0 mm 6 m/S 474 mmHg 76%
    02:00 +2°C° 0 mm 6 m/S 474 mmHg 77%
    03:00 +1°C° 0 mm 5 m/S 473 mmHg 80%
    04:00 +1°C° 0 mm 5 m/S 473 mmHg 83%
    05:00 +1°C° 0 mm 4 m/S 473 mmHg 86%
    06:00 +1°C° 0 mm 5 m/S 473 mmHg 83%
    07:00 +2°C° 0 mm 6 m/S 474 mmHg 79%
    08:00 +2°C° 0 mm 7 m/S 474 mmHg 76%
    09:00 +3°C° 0 mm 7 m/S 475 mmHg 70%
    10:00 +5°C° 0 mm 8 m/S 476 mmHg 64%
    11:00 +6°C° 0 mm 9 m/S 477 mmHg 58%
    12:00 +6°C° 0.1 mm 10 m/S 477 mmHg 57%
    13:00 +6°C° 0.1 mm 10 m/S 477 mmHg 57%
    14:00 +7°C° 0.1 mm 11 m/S 476 mmHg 56%
    15:00 +6°C° 0.4 mm 10 m/S 476 mmHg 62%
    16:00 +5°C° 0.4 mm 9 m/S 475 mmHg 67%
    17:00 +4°C° 0.4 mm 8 m/S 474 mmHg 73%
    18:00 +3°C° 0.5 mm 7 m/S 474 mmHg 71%
    19:00 +3°C° 0.5 mm 7 m/S 475 mmHg 70%
    20:00 +3°C° 0.5 mm 6 m/S 475 mmHg 69%
    21:00 +2°C° 0 mm 6 m/S 475 mmHg 72%
    22:00 +1°C° 0 mm 5 m/S 475 mmHg 76%
    23:00 +1°C° 0 mm 5 m/S 475 mmHg 79%

    25 Juli, Donnerstag

    Zeit Temperatur Niederschläge Wind Luftdruck Luftfeuchtigkeit
    00:00 0°C° 0 mm 5 m/S 475 mmHg 74%
    01:00 0°C° 0 mm 5 m/S 474 mmHg 69%
    02:00 -1°C° 0 mm 4 m/S 474 mmHg 64%
    03:00 -1°C° 0 mm 4 m/S 474 mmHg 62%
    04:00 -2°C° 0 mm 4 m/S 473 mmHg 59%
    05:00 -1°C° 0 mm 3 m/S 473 mmHg 57%
    06:00 -1°C° 0 mm 3 m/S 473 mmHg 57%
    07:00 -1°C° 0 mm 3 m/S 474 mmHg 57%
    08:00 0°C° 0 mm 3 m/S 475 mmHg 57%
    09:00 +2°C° 0 mm 5 m/S 477 mmHg 44%
    10:00 +4°C° 0 mm 7 m/S 478 mmHg 32%
    11:00 +7°C° 0 mm 9 m/S 480 mmHg 19%
    12:00 +8°C° 0 mm 9 m/S 480 mmHg 18%
    13:00 +10°C° 0 mm 9 m/S 480 mmHg 16%
    14:00 +11°C° 0 mm 10 m/S 480 mmHg 14%
    15:00 +11°C° 0 mm 9 m/S 480 mmHg 14%
    16:00 +10°C° 0 mm 8 m/S 479 mmHg 14%
    17:00 +10°C° 0 mm 7 m/S 479 mmHg 14%
    18:00 +8°C° 0 mm 6 m/S 478 mmHg 19%
    19:00 +5°C° 0 mm 4 m/S 477 mmHg 23%
    20:00 +4°C° 0 mm 2 m/S 476 mmHg 28%
    21:00 +3°C° 0 mm 2 m/S 475 mmHg 35%
    22:00 +2°C° 0 mm 2 m/S 475 mmHg 42%
    23:00 +1°C° 0 mm 2 m/S 475 mmHg 50%

    26 Juli, Freitag

    Zeit Temperatur Niederschläge Wind Luftdruck Luftfeuchtigkeit
    00:00 +1°C° 0 mm 2 m/S 474 mmHg 57%
    01:00 -1°C° 0 mm 2 m/S 474 mmHg 63%
    02:00 0°C° 0 mm 1 m/S 473 mmHg 70%
    03:00 -1°C° 0 mm 1 m/S 473 mmHg 72%
    04:00 -1°C° 0 mm 1 m/S 472 mmHg 74%
    05:00 -2°C° 0 mm 1 m/S 472 mmHg 76%
    06:00 -1°C° 0 mm 1 m/S 473 mmHg 67%
    07:00 +1°C° 0 mm 1 m/S 474 mmHg 59%
    08:00 +2°C° 0 mm 1 m/S 475 mmHg 50%
    09:00 +4°C° 0 mm 1 m/S 477 mmHg 39%
    10:00 +5°C° 0 mm 2 m/S 478 mmHg 29%
    11:00 +7°C° 0 mm 2 m/S 480 mmHg 18%
    12:00 +8°C° 0 mm 2 m/S 480 mmHg 16%
    13:00 +10°C° 0 mm 3 m/S 480 mmHg 14%
    14:00 +11°C° 0 mm 3 m/S 480 mmHg 12%
    15:00 +11°C° 0 mm 3 m/S 480 mmHg 13%
    16:00 +11°C° 0 mm 3 m/S 480 mmHg 15%
    17:00 +11°C° 0 mm 3 m/S 480 mmHg 16%
    18:00 +9°C° 0 mm 3 m/S 479 mmHg 29%
    19:00 +7°C° 0 mm 3 m/S 478 mmHg 43%
    20:00 +4°C° 0 mm 3 m/S 477 mmHg 56%
    21:00 +4°C° 0 mm 2 m/S 477 mmHg 58%
    22:00 +4°C° 0 mm 1 m/S 476 mmHg 61%
    23:00 +3°C° 0 mm 1 m/S 476 mmHg 64%

    27 Juli, Samstag

    Zeit Temperatur Niederschläge Wind Luftdruck Luftfeuchtigkeit
    00:00 +3°C° 0 mm 1 m/S 475 mmHg 69%
    01:00 +2°C° 0 mm 1 m/S 475 mmHg 73%
    02:00 +2°C° 0 mm 1 m/S 475 mmHg 78%
    03:00 +1°C° 0 mm 1 m/S 474 mmHg 80%
    04:00 +1°C° 0 mm 1 m/S 474 mmHg 82%
    05:00 0°C° 0 mm 1 m/S 473 mmHg 84%
    06:00 +1°C° 0 mm 1 m/S 474 mmHg 80%
    07:00 +2°C° 0 mm 1 m/S 475 mmHg 76%
    08:00 +3°C° 0 mm 1 m/S 476 mmHg 71%
    09:00 +5°C° 0 mm 1 m/S 478 mmHg 61%
    10:00 +6°C° 0 mm 2 m/S 479 mmHg 52%
    11:00 +8°C° 0 mm 2 m/S 480 mmHg 42%
    12:00 +9°C° 0 mm 3 m/S 480 mmHg 36%
    13:00 +11°C° 0 mm 4 m/S 481 mmHg 30%
    14:00 +12°C° 0 mm 4 m/S 481 mmHg 24%
    15:00 +12°C° 0 mm 4 m/S 481 mmHg 24%
    16:00 +12°C° 0 mm 4 m/S 480 mmHg 24%
    17:00 +12°C° 0 mm 4 m/S 480 mmHg 24%
    18:00 +10°C° 0 mm 4 m/S 479 mmHg 35%
    19:00 +8°C° 0 mm 3 m/S 478 mmHg 46%
    20:00 +6°C° 0 mm 2 m/S 477 mmHg 57%
    21:00 +5°C° 0 mm 2 m/S 477 mmHg 59%
    22:00 +5°C° 0 mm 1 m/S 477 mmHg 62%
    23:00 +5°C° 0 mm 1 m/S 476 mmHg 65%
    Mehr zeigen